Weather History for Iliamna, AK

Change the Weather History Date:

Monday, February 25, 2013

  Actual Average Record
Temperature  
Mean Temperature 28 °F -  
Max Temperature 37 °F 29 °F 44 °F (1947)
Min Temperature 19 °F 15 °F -16 °F (1954)
Degree Days  
Heating Degree Days 37    
Moisture  
Dew Point 24 °F    
Average Humidity 80    
Maximum Humidity 100    
Minimum Humidity 56    
Precipitation  
Precipitation 0.00 in - - ()
Snow  
Snow 0.00 in - - ()
Snow Depth 14.00 in    
Sea Level Pressure  
Sea Level Pressure 29.49 in    
Wind  
Wind Speed 5 mph (NNE)    
Max Wind Speed 15 mph    
Max Gust Speed 22 mph    
Visibility 10 miles    
Events Snow    
Averages and records for this station are not official NWS values.
T = Trace of Precipitation, MM = Missing Value Source: NWS Daily Summary

Daily Weather History Graph

Daily Weather History Graph

Search for Another Location

Airport:

Trip Planner

Search our weather history database for the weather conditions in past years. The results will help you decide how hot, cold, wet, or windy it might be!

Date:

Astronomy

Feb. 25, 2013 Rise Set
Actual Time 8:27 AM AKST 6:38 PM AKST
Civil Twilight 7:45 AM AKST 7:20 PM AKST
Nautical Twilight 6:58 AM AKST 8:08 PM AKST
Astronomical Twilight 6:09 AM AKST 8:56 PM AKST
Moon 7:22 PM AKST (2/25) 7:52 AM AKST (2/25)
Length of Visible Light 11h 35m
Length of Day
10h 11m
Full, 100% of the Moon is Illuminated
Feb 25
Full
Mar 4
Last Quarter
Mar 11
New
Mar 19
First Quarter
Mar 27
Full

Hourly Weather History & Observations

Time (AKST) Temp. Windchill Dew Point Humidity Pressure Visibility Wind Dir Wind Speed Gust Speed Precip Events Conditions
12:48 AM 19.4 °F 12.8 °F 19.4 °F 100% 29.60 in 9.0 mi ENE 4.6 mph - 0.00 in   Overcast
12:53 AM 19.9 °F 14.9 °F 19.9 °F 100% 29.62 in 9.0 mi ENE 3.5 mph - 0.00 in   Overcast
1:53 AM 19.0 °F - 18.0 °F 96% 29.60 in 10.0 mi Calm Calm - N/A   Overcast
2:21 AM 19.4 °F - 17.6 °F 93% 29.58 in 10.0 mi Calm Calm - N/A   Overcast
3:53 AM 21.0 °F - 19.9 °F 96% 29.57 in 10.0 mi Calm Calm - N/A   Overcast
4:00 AM 21.2 °F - 19.4 °F 93% 29.56 in 10.0 mi Calm Calm - N/A   Overcast
4:53 AM 21.9 °F - 21.0 °F 96% 29.55 in 10.0 mi Calm Calm - N/A   Overcast
5:53 AM 23.0 °F 17.0 °F 21.0 °F 92% 29.53 in 4.0 mi North 4.6 mph - 0.00 in Snow Light Snow
6:08 AM 24.8 °F 16.9 °F 21.2 °F 86% 29.51 in 9.0 mi North 6.9 mph - 0.00 in   Overcast
6:22 AM 24.8 °F 19.1 °F 24.8 °F 100% 29.50 in 10.0 mi NNE 4.6 mph - 0.00 in Snow Light Snow
6:53 AM 27.0 °F 19.5 °F 25.0 °F 92% 29.51 in 2.0 mi North 6.9 mph - 0.00 in Snow Light Snow
7:53 AM 28.0 °F 18.6 °F 25.0 °F 88% 29.49 in 10.0 mi North 10.4 mph - 0.00 in   Overcast
8:53 AM 26.1 °F 16.8 °F 24.1 °F 92% 29.48 in 10.0 mi North 9.2 mph - N/A   Overcast
9:53 AM 28.0 °F 20.0 °F 24.1 °F 85% 29.47 in 10.0 mi North 8.1 mph - N/A   Overcast
10:53 AM 32.0 °F 24.8 °F 25.0 °F 75% 29.47 in 10.0 mi North 8.1 mph - N/A   Mostly Cloudy
11:53 AM 35.1 °F 30.1 °F 27.0 °F 72% 29.47 in 10.0 mi NE 5.8 mph - N/A   Mostly Cloudy
12:53 PM 36.0 °F 29.0 °F 27.0 °F 70% 29.46 in 10.0 mi NE 9.2 mph - N/A   Mostly Cloudy
1:53 PM 37.0 °F 31.0 °F 27.0 °F 67% 29.45 in 10.0 mi NNE 8.1 mph - N/A   Overcast
2:53 PM 37.0 °F 29.8 °F 27.0 °F 67% 29.43 in 10.0 mi North 10.4 mph - N/A   Scattered Clouds
3:53 PM 37.9 °F 30.9 °F 25.0 °F 60% 29.43 in 10.0 mi ENE 10.4 mph - N/A   Overcast
4:53 PM 37.9 °F 31.5 °F 25.0 °F 60% 29.43 in 10.0 mi ENE 9.2 mph - N/A   Overcast
5:53 PM 37.0 °F 29.8 °F 26.1 °F 65% 29.44 in 10.0 mi East 10.4 mph - N/A   Overcast
6:53 PM 37.0 °F 31.0 °F 24.1 °F 59% 29.45 in 10.0 mi NE 8.1 mph - N/A   Overcast
7:53 PM 34.0 °F 27.2 °F 27.0 °F 75% 29.45 in 10.0 mi North 8.1 mph - N/A   Overcast
8:53 PM 34.0 °F 26.0 °F 27.0 °F 75% 29.45 in 10.0 mi North 10.4 mph - N/A   Overcast
9:53 PM 35.1 °F 26.9 °F 27.0 °F 72% 29.44 in 10.0 mi North 11.5 mph - N/A   Overcast
10:53 PM 34.0 °F 27.2 °F 27.0 °F 75% 29.44 in 10.0 mi North 8.1 mph - N/A   Overcast
11:53 PM 35.1 °F 25.5 °F 25.0 °F 67% 29.44 in 10.0 mi North 15.0 mph 21.9 mph N/A   Overcast